Location: Middle Street
(51.7167°N, 0.0333°E)
Time: 18:34:04
(UTC+00:00)

YAOGAN 1 - Pass Details

Date: 20 January 2021
Orbit: 618 x 620 km, 97.9° (Epoch: 27 February)

Event Time Altitude Azimuth Distance (km) Brightness Sun altitude
Rises 18:30:05 0° 164° (SSE) 2,887 5.9 -18.4°
Reaches altitude 10° 18:32:15 10° 164° (SSE) 1,986 5.1 -18.8°
Maximum altitude 18:36:35 89° 256° (WSW) 629 2.5 -19.4°
Drops below altitude 10° 18:40:57 10° 346° (NNW) 2,002 5.2 -20.1°
Sets 18:43:09 0° 346° (NNW) 2,912 6.1 -20.4°
